| time (UTC) | temp F | wind direction | speed knots | gust knots | rain 1hr in | rain 24hr in | rain mn in | humidity % | barometer mb |
| 20260507104517 | 37 | 142 | 0.0 | 0.0 | 0.00 | 0.00 | 0.00 | 83 | 1012.7 |
| 20260507103010 | 38 | 146 | 0.0 | 1.7 | 0.00 | 0.00 | 0.00 | 83 | 1012.8 |
| 20260507101508 | 38 | 153 | 0.0 | 0.9 | 0.00 | 0.00 | 0.00 | 83 | 1012.9 |
| 20260507100009 | 38 | 167 | 0.0 | 0.0 | 0.00 | 0.00 | 0.00 | 82 | 1013.0 |
| 20260507094504 | 38 | 168 | 0.0 | 0.0 | 0.00 | 0.00 | 0.00 | 82 | 1013.2 |
| 20260507093003 | 38 | 171 | 0.0 | 0.9 | 0.00 | 0.00 | 0.00 | 81 | 1013.1 |
| 20260507091501 | 39 | 169 | 0.0 | 0.9 | 0.00 | 0.00 | 0.00 | 79 | 1013.1 |
| 20260507090059 | 39 | 157 | 0.0 | 1.7 | 0.00 | 0.00 | 0.00 | 79 | 1013.1 |
| 20260507084602 | 39 | 142 | 0.0 | 0.9 | 0.00 | 0.00 | 0.00 | 78 | 1013.1 |
| 20260507083057 | 39 | 141 | 0.0 | 2.6 | 0.00 | 0.00 | 0.00 | 77 | 1013.2 |
| 20260507081554 | 40 | 137 | 0.0 | 1.7 | 0.00 | 0.00 | 0.00 | 77 | 1013.4 |
| 20260507080053 | 40 | 136 | 0.0 | 1.7 | 0.00 | 0.00 | 0.00 | 76 | 1013.5 |
| 20260507074552 | 41 | 140 | 0.0 | 0.0 | 0.00 | 0.00 | 0.00 | 76 | 1013.7 |
| 20260507073053 | 41 | 140 | 0.0 | 0.0 | 0.00 | 0.00 | 0.00 | 75 | 1013.6 |
| 20260507071548 | 41 | 140 | 0.0 | 0.9 | 0.00 | 0.00 | 0.00 | 75 | 1013.7 |
| 20260507070057 | 41 | 162 | 0.9 | 1.7 | 0.00 | 0.00 | 0.00 | 75 | 1013.7 |
| 20260507064547 | 42 | 162 | 0.0 | 0.0 | 0.00 | 0.00 | 0.00 | 73 | 1013.7 |
| 20260507063041 | 42 | 162 | 0.0 | 2.6 | 0.00 | 0.00 | 0.00 | 71 | 1013.7 |
| 20260507061541 | 43 | 128 | 0.0 | 0.9 | 0.00 | 0.00 | 0.00 | 70 | 1013.7 |
| 20260507060044 | 44 | 128 | 0.0 | 0.9 | 0.00 | 0.00 | 0.00 | 69 | 1013.7 |
| 20260507054540 | 44 | 136 | 0.0 | 2.6 | 0.00 | 0.00 | 0.00 | 68 | 1013.6 |
| 20260507053038 | 45 | 145 | 0.0 | 0.0 | 0.00 | 0.00 | 0.00 | 66 | 1013.5 |
| 20260507051535 | 45 | 145 | 0.0 | 4.3 | 0.00 | 0.00 | 0.00 | 66 | 1013.5 |
| 20260507050058 | 45 | 140 | 0.0 | 0.9 | 0.00 | 0.00 | 0.00 | 66 | 1013.3 |
| 20260507044546 | 46 | 142 | 0.0 | 4.3 | 0.00 | 0.00 | 0.00 | 65 | 1013.4 |
| 20260507043035 | 47 | 72 | 0.0 | 1.7 | 0.00 | 0.00 | 0.00 | 63 | 1013.2 |
| 20260507041533 | 47 | 76 | 0.0 | 0.9 | 0.00 | 0.00 | 0.00 | 62 | 1013.2 |
| 20260507040033 | 48 | 60 | 0.0 | 1.7 | 0.00 | 0.00 | 0.00 | 61 | 1013.2 |
| 20260507034538 | 48 | 42 | 0.0 | 1.7 | 0.00 | 0.00 | 0.00 | 59 | 1013.3 |
| 20260507033040 | 49 | 85 | 0.0 | 1.7 | 0.00 | 0.00 | 0.00 | 59 | 1013.0 |
| 20260507031534 | 50 | 46 | 0.0 | 1.7 | 0.00 | 0.00 | 0.00 | 58 | 1012.9 |
| 20260507030037 | 52 | 350 | 0.0 | 0.9 | 0.00 | 0.00 | 0.00 | 55 | 1012.9 |
| 20260507024540 | 54 | 349 | 0.0 | 0.9 | 0.00 | 0.00 | 0.00 | 51 | 1012.9 |
| 20260507023031 | 55 | 349 | 0.0 | 2.6 | 0.00 | 0.00 | 0.00 | 48 | 1013.0 |
| 20260507021545 | 55 | 310 | 0.0 | 2.6 | 0.00 | 0.00 | 0.00 | 48 | 1013.1 |
| 20260507020033 | 56 | 321 | 0.9 | 6.1 | 0.00 | 0.00 | 0.00 | 46 | 1013.1 |
| 20260507014529 | 57 | 360 | 0.9 | 6.1 | 0.00 | 0.00 | 0.00 | 45 | 1013.0 |
| 20260507013034 | 57 | 360 | 1.7 | 5.2 | 0.00 | 0.00 | 0.00 | 45 | 1012.9 |
| 20260507011532 | 57 | 360 | 1.7 | 6.1 | 0.00 | 0.00 | 0.00 | 44 | 1013.1 |
| 20260507010039 | 58 | 286 | 0.9 | 6.1 | 0.00 | 0.00 | 0.00 | 43 | 1013.1 |
| 20260507004528 | 59 | 196 | 0.9 | 7.0 | 0.00 | 0.00 | 0.00 | 40 | 1012.9 |
| 20260507003027 | 60 | 311 | 0.9 | 4.3 | 0.00 | 0.00 | 0.00 | 38 | 1013.0 |
| 20260507001530 | 60 | 290 | 1.7 | 6.1 | 0.00 | 0.00 | 0.00 | 37 | 1012.7 |
| 20260507000032 | 61 | 237 | 1.7 | 5.2 | 0.00 | 0.00 | 0.00 | 36 | 1012.6 |
| 20260506234525 | 61 | 318 | 1.7 | 5.2 | 0.00 | 0.00 | 0.00 | 35 | 1012.8 |
| 20260506233025 | 61 | 296 | 1.7 | 4.3 | 0.00 | 0.00 | 0.00 | 34 | 1012.5 |
| 20260506231527 | 62 | 314 | 2.6 | 7.0 | 0.00 | 0.00 | 0.00 | 36 | 1012.5 |
| 20260506230022 | 61 | 236 | 0.9 | 7.0 | 0.00 | 0.00 | 0.00 | 39 | 1012.9 |
| 20260506224521 | 61 | 306 | 2.6 | 7.8 | 0.00 | 0.00 | 0.00 | 36 | 1013.1 |
| 20260506223020 | 61 | 316 | 1.7 | 7.8 | 0.00 | 0.00 | 0.00 | 40 | 1013.1 |
| 20260506221519 | 60 | 35 | 1.7 | 4.3 | 0.00 | 0.00 | 0.00 | 39 | 1013.3 |
| 20260506220027 | 59 | 290 | 2.6 | 11.3 | 0.00 | 0.00 | 0.00 | 39 | 1013.5 |
| 20260506214519 | 59 | 305 | 1.7 | 7.8 | 0.00 | 0.00 | 0.00 | 40 | 1013.7 |
| 20260506213027 | 58 | 302 | 0.9 | 6.1 | 0.00 | 0.00 | 0.00 | 40 | 1013.8 |
| 20260506211519 | 58 | 315 | 1.7 | 6.1 | 0.00 | 0.00 | 0.00 | 39 | 1013.8 |
| 20260506210018 | 59 | 350 | 0.9 | 6.1 | 0.00 | 0.00 | 0.00 | 40 | 1013.9 |
| 20260506204517 | 60 | 323 | 1.7 | 7.0 | 0.00 | 0.00 | 0.00 | 41 | 1014.1 |
| 20260506203023 | 60 | 360 | 1.7 | 7.0 | 0.00 | 0.00 | 0.00 | 40 | 1013.9 |
| 20260506201511 | 59 | 276 | 1.7 | 3.5 | 0.00 | 0.00 | 0.00 | 41 | 1013.9 |
| 20260506200010 | 57 | 220 | 0.9 | 8.7 | 0.00 | 0.00 | 0.00 | 47 | 1013.9 |
| 20260506194512 | 57 | 317 | 0.9 | 4.3 | 0.00 | 0.00 | 0.00 | 44 | 1014.1 |
| 20260506193014 | 57 | 321 | 1.7 | 5.2 | 0.00 | 0.00 | 0.00 | 44 | 1014.2 |
| 20260506191511 | 57 | 319 | 2.6 | 7.0 | 0.00 | 0.00 | 0.00 | 43 | 1014.2 |
| 20260506190008 | 58 | 295 | 1.7 | 6.1 | 0.00 | 0.00 | 0.00 | 45 | 1014.2 |
| 20260506184506 | 57 | 142 | 4.3 | 10.4 | 0.00 | 0.00 | 0.00 | 42 | 1014.3 |
| 20260506183004 | 57 | 283 | 0.9 | 6.1 | 0.00 | 0.00 | 0.00 | 44 | 1014.2 |
| 20260506181502 | 55 | 350 | 3.5 | 10.4 | 0.00 | 0.00 | 0.00 | 45 | 1014.3 |
| 20260506180101 | 55 | 311 | 1.7 | 7.0 | 0.00 | 0.00 | 0.00 | 46 | 1014.3 |
| 20260506174604 | 54 | 254 | 0.0 | 7.8 | 0.00 | 0.00 | 0.00 | 49 | 1014.3 |
| 20260506173115 | 55 | 360 | 2.6 | 6.1 | 0.00 | 0.00 | 0.00 | 47 | 1014.4 |
| 20260506171600 | 53 | 310 | 0.9 | 7.8 | 0.00 | 0.00 | 0.00 | 49 | 1014.4 |
| 20260506170054 | 53 | 64 | 1.7 | 5.2 | 0.00 | 0.00 | 0.00 | 52 | 1014.4 |
| 20260506164553 | 50 | 309 | 2.6 | 5.2 | 0.00 | 0.00 | 0.00 | 53 | 1014.4 |
| 20260506163052 | 50 | 319 | 1.7 | 4.3 | 0.00 | 0.00 | 0.00 | 54 | 1014.4 |
| 20260506161551 | 46 | 328 | 0.9 | 2.6 | 0.00 | 0.00 | 0.00 | 60 | 1014.4 |
| 20260506160045 | 43 | 310 | 0.0 | 1.7 | 0.00 | 0.00 | 0.00 | 63 | 1014.5 |
| 20260506154537 | 42 | 175 | 0.0 | 2.6 | 0.00 | 0.00 | 0.00 | 65 | 1014.6 |
| 20260506153035 | 40 | 165 | 0.0 | 2.6 | 0.00 | 0.00 | 0.00 | 68 | 1014.6 |
| 20260506151542 | 38 | 173 | 0.9 | 3.5 | 0.00 | 0.00 | 0.00 | 70 | 1014.7 |
| 20260506150034 | 36 | 154 | 0.0 | 2.6 | 0.00 | 0.00 | 0.00 | 77 | 1014.7 |
| 20260506144534 | 34 | 360 | 0.0 | 1.7 | 0.00 | 0.00 | 0.00 | 79 | 1014.9 |
| 20260506143044 | 32 | 360 | 0.0 | 0.9 | 0.00 | 0.00 | 0.00 | 80 | 1014.9 |
| 20260506141531 | 31 | 360 | 0.0 | 1.7 | 0.00 | 0.00 | 0.00 | 83 | 1014.8 |
| 20260506140036 | 29 | 162 | 0.0 | 0.9 | 0.00 | 0.00 | 0.00 | 86 | 1014.8 |
| 20260506134529 | 28 | 163 | 0.0 | 0.0 | 0.00 | 0.00 | 0.00 | 90 | 1014.6 |
| 20260506133031 | 27 | 164 | 0.0 | 0.0 | 0.00 | 0.00 | 0.00 | 88 | 1014.6 |
| 20260506131528 | 26 | 164 | 0.0 | 0.9 | 0.00 | 0.00 | 0.00 | 87 | 1014.1 |
| 20260506130025 | 27 | 151 | 0.9 | 2.6 | 0.00 | 0.00 | 0.00 | 86 | 1014.0 |
| 20260506124522 | 27 | 78 | 0.0 | 0.0 | 0.00 | 0.00 | 0.00 | 88 | 1013.8 |
| 20260506123020 | 27 | 77 | 0.0 | 0.0 | 0.00 | 0.00 | 0.00 | 85 | 1013.5 |
| 20260506121517 | 27 | 77 | 0.0 | 0.9 | 0.00 | 0.00 | 0.00 | 86 | 1013.4 |
| 20260506120017 | 28 | 77 | 0.0 | 0.9 | 0.00 | 0.00 | 0.00 | 85 | 1013.5 |
| 20260506114520 | 28 | 77 | 0.0 | 0.0 | 0.00 | 0.00 | 0.00 | 86 | 1013.4 |
| 20260506113014 | 28 | 78 | 0.0 | 0.9 | 0.00 | 0.00 | 0.00 | 83 | 1013.0 |
| 20260506111510 | 29 | 119 | 0.0 | 0.0 | 0.00 | 0.00 | 0.00 | 81 | 1012.8 |
| 20260506110007 | 30 | 113 | 0.0 | 0.9 | 0.00 | 0.00 | 0.00 | 79 | 1012.6 |